Flight Information

DEPARTURE
SANTA MARIA, CA
Elevation:
261
Runways:
12/30 - 8004x150 - ASPH-G
2/20 - 5199x75 - ASPH-G
Active PE Departure:
30
Current PE ATIS:
G
Altimeter:
29.93
Remarks:
ATIS:
121.15 805-347-9136
Ground:
121.9
Tower:
118.3
DESTINATION
,
Elevation:
TPA:
1000 (est.)


6873.7 NM71° True-14° Var57° HDG

Flight Plan:
(click to file on line)

1. Type
2. Aircraft Identification
3. Aircraft Type / Special Equipment
4. True Airspeed
kts
5. Departure Airport
(ICAO code)
6. Arriving Airport
(ICAO code)
7. Cruising Altitude
ft
8. Alternate Airport
(ICAO code)
9. Route of Flight
10. Remarks


00:00:00 Departure ATIS: Destination ATIS:

Clearance Limit:
Route:
Altitude: Expect in minutes
Frequency:
Transponder: (7500 Hijack / 7600 Lost Comms / 7700 Emergency)


KSMX 110251Z 29011KT 7SM CLR 10/07 A2993 RMK AO2 SLP138 T01000067 53004
Time: 2021-04-11T02:51:00Z
1618112239
Winds: 290 @ 11 kts
Visibility: 7.0 sm
Clouds (AGL): CLR
Temperature: 10.0 C
Dew Point: 6.7 C
Pressure: 29.929134 in Hgbr


Notes:

Data extracted from FAA Digital Chart Supplement. Effective: 0901Z Thursday, Feb 25, 2021 to 0901Z Thursday, APR 22, 2021
Current ATIS data is provided courtisy of PilotEdge.